FW3031 Weather Reports


time (UTC)temp
C
wind
direction
speed
KPH
gust
KPH
rain 1hr
cm
rain 24hr
cm
rain mn
cm
humidity
%
barometer
mb
20260503215600 37 190 4.8 9.7 0.00 0.00 0.00 26 1007.0
20260503215059 37 190 0.0 14.5 0.00 0.00 0.00 26 1007.1
20260503214559 37 190 4.8 14.5 0.00 0.00 0.00 25 1007.1
20260503214057 37 190 0.0 9.7 0.00 0.00 0.00 26 1007.2
20260503213555 37 190 1.6 9.7 0.00 0.00 0.00 26 1007.2
20260503213102 37 190 4.8 8.0 0.00 0.00 0.00 26 1007.1
20260503213057 37 190 3.2 8.0 0.00 0.00 0.00 26 1007.3
20260503212554 37 190 1.6 6.4 0.00 0.00 0.00 26 1007.5
20260503212051 36 190 0.0 12.9 0.00 0.00 0.00 27 1007.5
20260503211604 36 190 6.4 14.5 0.00 0.00 0.00 27 1007.7
20260503211600 36 190 4.8 14.5 0.00 0.00 0.00 26 1007.5
20260503211050 36 190 1.6 12.9 0.00 0.00 0.00 27 1007.7
20260503210549 36 190 1.6 17.7 0.00 0.00 0.00 27 1007.9
20260503210058 36 190 3.2 17.7 0.00 0.00 0.00 27 1007.8
20260503210048 36 190 0.0 17.7 0.00 0.00 0.00 27 1008.0
20260503205546 36 190 1.6 14.5 0.00 0.00 0.00 28 1008.0
20260503205045 36 190 3.2 14.5 0.00 0.00 0.00 28 1008.2
20260503204620 36 0 1.6 11.3 0.00 0.00 0.00 28 1008.2
20260503204545 36 190 1.6 11.3 0.00 0.00 0.00 28 1008.3
20260503204044 36 190 3.2 11.3 0.00 0.00 0.00 28 1008.5
20260503203541 36 190 0.0 14.5 0.00 0.00 0.00 29 1008.6
20260503203102 36 190 6.4 14.5 0.00 0.00 0.00 28 1008.7
20260503203057 36 190 3.2 14.5 0.00 0.00 0.00 28 1008.9
20260503202542 36 190 1.6 6.4 0.00 0.00 0.00 28 1009.0
20260503202038 36 190 0.0 11.3 0.00 0.00 0.00 29 1009.1
20260503201559 36 190 3.2 8.0 0.00 0.00 0.00 28 1008.8
20260503201538 36 190 3.2 8.0 0.00 0.00 0.00 29 1009.1
20260503201034 36 190 0.0 9.7 0.00 0.00 0.00 29 1009.2
20260503200533 36 190 1.6 9.7 0.00 0.00 0.00 29 1009.4
20260503200100 35 0 3.2 11.3 0.00 0.00 0.00 29 1009.2
20260503200035 35 190 1.6 8.0 0.00 0.00 0.00 29 1009.5
20260503195531 35 190 1.6 11.3 0.00 0.00 0.00 29 1009.6
20260503195030 35 190 1.6 12.9 0.00 0.00 0.00 29 1009.8
20260503194609 35 190 6.4 12.9 0.00 0.00 0.00 29 1009.6
20260503194529 35 190 6.4 12.9 0.00 0.00 0.00 29 1010.0
20260503194028 35 190 0.0 14.5 0.00 0.00 0.00 30 1010.1
20260503193527 35 190 4.8 14.5 0.00 0.00 0.00 30 1010.2
20260503193118 35 190 3.2 14.5 0.00 0.00 0.00 30 1010.0
20260503193026 35 190 1.6 14.5 0.00 0.00 0.00 30 1010.3
20260503192525 35 190 4.8 11.3 0.00 0.00 0.00 30 1010.4
20260503192023 35 190 1.6 9.7 0.00 0.00 0.00 31 1010.5
20260503191616 35 0 1.6 14.5 0.00 0.00 0.00 30 1010.5
20260503191521 35 190 1.6 14.5 0.00 0.00 0.00 31 1010.6
20260503191020 35 190 3.2 14.5 0.00 0.00 0.00 30 1010.8
20260503190524 35 190 4.8 11.3 0.00 0.00 0.00 31 1010.9
20260503190058 35 0 1.6 9.7 0.00 0.00 0.00 31 1010.7
20260503190023 35 190 0.0 8.0 0.00 0.00 0.00 31 1010.9
20260503185517 35 190 1.6 12.9 0.00 0.00 0.00 31 1011.1
20260503185016 34 190 3.2 16.1 0.00 0.00 0.00 32 1011.2
20260503184612 34 190 3.2 12.9 0.00 0.00 0.00 32 1011.1
20260503184515 34 190 4.8 12.9 0.00 0.00 0.00 32 1011.3
20260503184015 33 190 0.0 8.0 0.00 0.00 0.00 32 1011.4
20260503183514 34 190 1.6 14.5 0.00 0.00 0.00 32 1011.6
20260503183101 34 0 4.8 16.1 0.00 0.00 0.00 32 1011.4
20260503183012 33 190 3.2 16.1 0.00 0.00 0.00 33 1011.8
20260503182515 34 190 6.4 16.1 0.00 0.00 0.00 32 1011.9
20260503182010 34 190 6.4 12.9 0.00 0.00 0.00 33 1011.9
20260503181559 34 190 1.6 11.3 0.00 0.00 0.00 32 1011.6
20260503181509 34 190 1.6 11.3 0.00 0.00 0.00 33 1012.0
20260503181010 33 190 4.8 11.3 0.00 0.00 0.00 33 1012.2
20260503180508 33 190 3.2 11.3 0.00 0.00 0.00 34 1012.2
20260503180016 33 190 3.2 17.7 0.00 0.00 0.00 35 1012.3
20260503175506 33 190 6.4 17.7 0.00 0.00 0.00 34 1012.3
20260503175005 33 190 0.0 12.9 0.00 0.00 0.00 35 1012.3
20260503174604 33 190 4.8 12.9 0.00 0.00 0.00 35 1012.1
20260503174513 33 190 3.2 12.9 0.00 0.00 0.00 35 1012.5
20260503174007 33 190 0.0 9.7 0.00 0.00 0.00 36 1012.6
20260503173502 33 190 1.6 11.3 0.00 0.00 0.00 36 1012.8
20260503173105 33 190 3.2 14.5 0.00 0.00 0.00 36 1012.5
20260503173001 32 190 3.2 14.5 0.00 0.00 0.00 37 1012.9
20260503172600 32 190 1.6 14.5 0.00 0.00 0.00 36 1013.0
20260503172100 32 190 6.4 17.7 0.00 0.00 0.00 37 1013.1
20260503171601 32 190 0.0 9.7 0.00 0.00 0.00 37 1013.1
20260503171557 32 190 1.6 11.3 0.00 0.00 0.00 36 1012.8
20260503171058 32 190 1.6 11.3 0.00 0.00 0.00 37 1013.3
20260503170558 32 190 0.0 9.7 0.00 0.00 0.00 37 1013.5
20260503170117 32 190 1.6 12.9 0.00 0.00 0.00 37 1013.1
20260503160108 31 190 1.6 17.7 0.00 0.00 0.00 39 1014.0
20260503150536 28 190 0.0 1.6 0.00 0.00 0.00 32 1014.8
20260503131017 22 190 0.0 1.6 0.00 0.00 0.00 47 1014.2
20260503130519 22 190 0.0 3.2 0.00 0.00 0.00 47 1014.1
20260503110555 23 190 0.0 1.6 0.00 0.00 0.00 44 1012.6
20260503100107 25 0 0.0 0.0 0.00 0.00 0.00 40 1011.4
20260503081600 25 0 0.0 0.0 0.00 0.00 0.00 43 1011.5
20260503081536 25 190 0.0 0.0 0.00 0.00 0.00 43 1012.4
20260503081036 25 190 0.0 0.0 0.00 0.00 0.00 44 1012.4
20260503080539 25 190 0.0 0.0 0.00 0.00 0.00 43 1012.4
20260503080105 25 0 0.0 0.0 0.00 0.00 0.00 43 1011.7
20260503072532 25 190 0.0 0.0 0.00 0.00 0.00 45 1012.4
20260503072032 25 190 0.0 0.0 0.00 0.00 0.00 44 1012.3
20260503071612 25 0 0.0 0.0 0.00 0.00 0.00 43 1011.4
20260503071531 25 190 0.0 0.0 0.00 0.00 0.00 44 1012.3
20260503071030 25 190 0.0 0.0 0.00 0.00 0.00 43 1012.3
20260503070530 25 190 0.0 0.0 0.00 0.00 0.00 43 1012.3
20260503055026 27 190 0.0 0.0 0.00 0.00 0.00 40 1011.5
20260503054611 27 0 0.0 4.8 0.00 0.00 0.00 39 1010.7
20260503054526 27 190 0.0 4.8 0.00 0.00 0.00 39 1011.4
20260503054025 27 190 0.0 4.8 0.00 0.00 0.00 39 1011.4
20260503053525 27 190 0.0 1.6 0.00 0.00 0.00 39 1011.3
20260503053058 27 0 0.0 0.0 0.00 0.00 0.00 39 1010.6
20260503053025 27 190 0.0 0.0 0.00 0.00 0.00 39 1011.3
20260503052525 27 190 0.0 0.0 0.00 0.00 0.00 39 1011.3
20260503052025 27 190 0.0 3.2 0.00 0.00 0.00 39 1011.2
20260503051558 27 0 0.0 4.8 0.00 0.00 0.00 38 1010.4
20260503051527 27 190 0.0 4.8 0.00 0.00 0.00 38 1011.1
20260503051024 27 190 0.0 4.8 0.00 0.00 0.00 38 1011.0
20260503050523 27 190 0.0 4.8 0.00 0.00 0.00 38 1010.9
20260503050100 27 0 1.6 8.0 0.00 0.00 0.00 38 1010.1
20260503050024 27 190 0.0 8.0 0.00 0.00 0.00 38 1010.8
20260503045524 27 190 1.6 8.0 0.00 0.00 0.00 38 1010.6
20260503045023 27 190 3.2 8.0 0.00 0.00 0.00 38 1010.6
20260503044559 28 190 0.0 4.8 0.00 0.00 0.00 38 1009.9
20260503044527 28 190 0.0 4.8 0.00 0.00 0.00 38 1010.6
20260503044022 28 190 0.0 8.0 0.00 0.00 0.00 38 1010.7
20260503043522 28 190 0.0 8.0 0.00 0.00 0.00 38 1010.7
20260503043059 28 190 0.0 9.7 0.00 0.00 0.00 37 1009.9
20260503043022 28 190 0.0 8.0 0.00 0.00 0.00 38 1010.6
20260503042521 28 190 1.6 9.7 0.00 0.00 0.00 38 1010.6
20260503042022 28 190 0.0 9.7 0.00 0.00 0.00 38 1010.4
20260503041558 28 190 1.6 9.7 0.00 0.00 0.00 37 1009.7
20260503041521 28 190 0.0 9.7 0.00 0.00 0.00 38 1010.4
20260503041020 28 190 1.6 12.9 0.00 0.00 0.00 38 1010.3
20260503040620 28 190 3.2 12.9 0.00 0.00 0.00 37 1010.2
20260503040058 28 190 4.8 14.5 0.00 0.00 0.00 37 1009.5
20260503040026 28 190 4.8 11.3 0.00 0.00 0.00 37 1010.1
20260503035520 28 190 3.2 14.5 0.00 0.00 0.00 37 1010.0
20260503035020 29 190 4.8 14.5 0.00 0.00 0.00 37 1009.9
20260503034558 29 190 4.8 9.7 0.00 0.00 0.00 36 1009.2
20260503034520 29 190 4.8 9.7 0.00 0.00 0.00 37 1009.7
20260503034020 29 190 1.6 9.7 0.00 0.00 0.00 37 1009.6
20260503033518 29 190 1.6 9.7 0.00 0.00 0.00 37 1009.5
20260503033104 30 0 4.8 9.7 0.00 0.00 0.00 36 1008.8
20260503033020 30 190 4.8 9.7 0.00 0.00 0.00 37 1009.4
20260503032518 30 190 0.0 6.4 0.00 0.00 0.00 37 1009.3
20260503032018 30 190 0.0 6.4 0.00 0.00 0.00 36 1009.3
20260503031558 30 190 0.0 0.0 0.00 0.00 0.00 36 1008.6
20260503031519 30 190 0.0 0.0 0.00 0.00 0.00 36 1009.1
20260503031018 30 190 0.0 0.0 0.00 0.00 0.00 37 1008.9
20260503030518 30 190 0.0 0.0 0.00 0.00 0.00 36 1008.9
20260503030057 30 0 0.0 4.8 0.00 0.00 0.00 36 1008.2
20260503030024 30 190 0.0 4.8 0.00 0.00 0.00 37 1008.8
20260503025517 30 190 0.0 12.9 0.00 0.00 0.00 36 1008.7
20260503025019 31 190 0.0 12.9 0.00 0.00 0.00 35 1008.7
20260503024600 31 0 0.0 3.2 0.00 0.00 0.00 35 1008.1
20260503024517 31 190 0.0 3.2 0.00 0.00 0.00 35 1008.7
20260503024018 31 190 0.0 6.4 0.00 0.00 0.00 35 1008.5
20260503023516 31 190 0.0 9.7 0.00 0.00 0.00 34 1008.4
20260503023059 31 190 1.6 9.7 0.00 0.00 0.00 34 1007.8
20260503023035 31 190 1.6 9.7 0.00 0.00 0.00 34 1008.3
20260503022516 31 190 0.0 9.7 0.00 0.00 0.00 34 1008.2
20260503022018 31 190 0.0 6.4 0.00 0.00 0.00 34 1008.0
20260503021558 31 0 0.0 6.4 0.00 0.00 0.00 33 1007.5
20260503021517 31 190 0.0 6.4 0.00 0.00 0.00 33 1007.9
20260503021016 32 190 0.0 6.4 0.00 0.00 0.00 33 1007.8
20260503020516 32 190 0.0 4.8 0.00 0.00 0.00 33 1007.7
20260503020058 32 0 0.0 4.8 0.00 0.00 0.00 32 1007.2
20260503020016 32 190 0.0 4.8 0.00 0.00 0.00 33 1007.5
20260503015516 32 190 0.0 1.6 0.00 0.00 0.00 32 1007.3
20260503015015 32 190 0.0 1.6 0.00 0.00 0.00 32 1007.3
20260503014606 32 0 0.0 3.2 0.00 0.00 0.00 31 1006.9
20260503014515 32 190 0.0 3.2 0.00 0.00 0.00 32 1007.1
20260503014015 32 190 0.0 3.2 0.00 0.00 0.00 32 1006.9
20260503013514 32 190 0.0 0.0 0.00 0.00 0.00 31 1006.7
20260503013058 32 0 0.0 4.8 0.00 0.00 0.00 31 1006.2
20260503013014 32 190 0.0 4.8 0.00 0.00 0.00 31 1006.5
20260503012515 32 190 0.0 6.4 0.00 0.00 0.00 31 1006.4
20260503012013 32 190 0.0 6.4 0.00 0.00 0.00 31 1006.3
20260503011557 33 0 0.0 4.8 0.00 0.00 0.00 30 1005.9
20260503011513 33 190 0.0 0.0 0.00 0.00 0.00 30 1006.2
20260503011013 33 190 0.0 8.0 0.00 0.00 0.00 30 1006.0
20260503010514 33 190 1.6 8.0 0.00 0.00 0.00 30 1005.9
20260503010058 33 0 1.6 6.4 0.00 0.00 0.00 29 1005.4
20260503010019 33 190 0.0 6.4 0.00 0.00 0.00 29 1005.7
20260503005513 33 190 0.0 9.7 0.00 0.00 0.00 29 1005.7
20260503005017 34 190 0.0 17.7 0.00 0.00 0.00 28 1005.6
20260503004559 34 0 8.0 17.7 0.00 0.00 0.00 27 1005.2
20260503004513 34 190 8.0 17.7 0.00 0.00 0.00 27 1005.6
20260503004012 35 190 1.6 14.5 0.00 0.00 0.00 27 1005.4
20260503003511 35 190 4.8 17.7 0.00 0.00 0.00 27 1005.3
20260503003059 35 190 8.0 20.9 0.00 0.00 0.00 26 1004.9
20260503003012 35 190 6.4 17.7 0.00 0.00 0.00 26 1005.1
20260503002516 35 190 4.8 20.9 0.00 0.00 0.00 26 1004.9
20260503002011 35 190 8.0 22.5 0.00 0.00 0.00 26 1004.9
20260503001559 36 190 9.7 22.5 0.00 0.00 0.00 25 1004.6
20260503001511 36 190 9.7 22.5 0.00 0.00 0.00 25 1004.7
20260503001011 36 190 8.0 22.5 0.00 0.00 0.00 25 1004.7
20260503000510 36 190 6.4 17.7 0.00 0.00 0.00 24 1004.5
20260503000016 37 190 8.0 16.1 0.00 0.00 0.00 24 1004.5
20260502235510 37 190 1.6 11.3 0.00 0.00 0.00 25 1004.4
20260502235010 37 190 3.2 11.3 0.00 0.00 0.00 25 1004.3
20260502234558 37 190 1.6 8.0 0.00 0.00 0.00 24 1004.1
20260502234511 37 190 3.2 8.0 0.00 0.00 0.00 25 1004.3
20260502234010 37 190 0.0 14.5 0.00 0.00 0.00 25 1004.3
20260502233509 37 190 1.6 14.5 0.00 0.00 0.00 25 1004.3
20260502233059 37 190 3.2 12.9 0.00 0.00 0.00 25 1004.0
20260502233010 37 190 1.6 12.9 0.00 0.00 0.00 25 1004.3
20260502232509 37 190 3.2 11.3 0.00 0.00 0.00 25 1004.3
20260502232009 37 190 4.8 16.1 0.00 0.00 0.00 25 1004.2
20260502231604 37 190 6.4 14.5 0.00 0.00 0.00 24 1004.0
20260502231513 37 190 6.4 14.5 0.00 0.00 0.00 25 1004.2
20260502231009 37 190 3.2 11.3 0.00 0.00 0.00 25 1004.3
20260502230509 37 190 3.2 9.7 0.00 0.00 0.00 25 1004.2
20260502230104 37 0 4.8 16.1 0.00 0.00 0.00 24 1004.0
20260502230010 37 190 3.2 11.3 0.00 0.00 0.00 25 1004.2
20260502225510 37 190 0.0 16.1 0.00 0.00 0.00 25 1004.3
20260502225008 37 190 6.4 16.1 0.00 0.00 0.00 24 1004.3
20260502224601 37 0 1.6 17.7 0.00 0.00 0.00 24 1004.0
20260502224508 37 190 0.0 17.7 0.00 0.00 0.00 25 1004.2
20260502224008 37 190 8.0 17.7 0.00 0.00 0.00 25 1004.2
20260502223508 37 190 0.0 8.0 0.00 0.00 0.00 25 1004.3
20260502223100 37 0 0.0 16.1 0.00 0.00 0.00 24 1004.2
20260502223007 37 190 0.0 16.1 0.00 0.00 0.00 25 1004.4
20260502222505 37 190 4.8 16.1 0.00 0.00 0.00 25 1004.5
20260502222004 37 190 1.6 25.7 0.00 0.00 0.00 25 1004.5
20260502221600 37 190 6.4 25.7 0.00 0.00 0.00 24 1004.4
20260502221506 37 190 3.2 25.7 0.00 0.00 0.00 25 1004.6
20260502221004 37 190 0.0 9.7 0.00 0.00 0.00 25 1004.6
20260502220503 37 190 1.6 12.9 0.00 0.00 0.00 25 1004.7
20260502220057 37 0 0.0 14.5 0.00 0.00 0.00 25 1004.5
20260502220003 37 190 0.0 14.5 0.00 0.00 0.00 25 1004.7